DW4466 Weather Reports


Display with metric or nautical units.
time (UTC)temp
F
wind
direction
speed
MPH
gust
MPH
rain 1hr
in
rain 24hr
in
rain mn
in
humidity
%
barometer
mb
20260510065511 49 330 0.0 3.0 0.00 0.00 0.00 94 1008.8
20260510065044 49 330 0.0 3.0 0.00 0.00 0.00 95 1008.8
20260510064513 50 57 0.0 2.0 0.00 0.00 0.00 95 1008.6
20260510064045 50 57 0.0 2.0 0.00 0.00 0.00 96 1008.6
20260510063517 50 57 0.0 3.0 0.00 0.00 0.00 95 1008.6
20260510063049 50 57 1.0 3.0 0.00 0.00 0.00 95 1008.6
20260510062520 50 57 0.0 2.0 0.00 0.00 0.00 95 1008.6
20260510062053 50 57 0.0 2.0 0.00 0.00 0.00 95 1008.7
20260510061523 50 57 0.0 2.0 0.00 0.00 0.00 95 1008.7
20260510061056 50 57 0.0 0.0 0.00 0.00 0.00 95 1008.7
20260510060527 50 57 0.0 2.0 0.00 0.00 0.00 95 1008.8
20260510060003 50 57 1.0 2.0 0.00 0.00 0.00 95 1008.8
20260510055537 50 57 1.0 3.0 0.00 0.00 0.00 94 1008.7
20260510055007 51 41 0.0 1.0 0.00 0.00 0.00 94 1008.7
20260510054545 51 41 0.0 1.0 0.00 0.00 0.00 94 1008.6
20260510054054 51 41 0.0 1.0 0.00 0.00 0.00 94 1008.6
20260510053522 51 41 0.0 3.0 0.00 0.00 0.00 94 1008.6
20260510053051 51 41 0.0 3.0 0.00 0.00 0.00 94 1008.7
20260510052520 51 41 0.0 0.0 0.00 0.00 0.00 93 1008.7
20260510052052 51 21 0.0 0.0 0.00 0.00 0.00 93 1008.7
20260510051522 51 309 0.0 1.0 0.00 0.00 0.00 93 1008.6
20260510051057 51 309 0.0 1.0 0.00 0.00 0.00 93 1008.5
20260510050526 51 309 0.0 0.0 0.00 0.00 0.00 93 1008.6
20260510050003 52 309 0.0 0.0 0.00 0.00 0.00 93 1008.6
20260510045536 52 309 0.0 0.0 0.00 0.00 0.00 92 1008.5
20260510045005 52 309 0.0 0.0 0.00 0.00 0.00 91 1008.5
20260510044539 52 285 0.0 0.0 0.00 0.00 0.00 91 1008.5
20260510044020 52 285 0.0 0.0 0.00 0.00 0.00 91 1008.5
20260510043545 53 228 0.0 0.0 0.00 0.00 0.00 91 1008.5
20260510043013 53 228 0.0 1.0 0.00 0.00 0.00 91 1008.6
20260510042546 53 228 0.0 2.0 0.00 0.00 0.00 90 1008.5
20260510042016 53 228 1.0 2.0 0.00 0.00 0.00 90 1008.5
20260510041556 53 228 0.0 0.0 0.00 0.00 0.00 89 1008.6
20260510041025 54 228 0.0 0.0 0.00 0.00 0.00 89 1008.5
20260510040554 54 228 0.0 0.0 0.00 0.00 0.00 89 1008.5
20260510040027 54 228 0.0 0.0 0.00 0.00 0.00 89 1008.6
20260510035554 54 228 0.0 4.0 0.00 0.00 0.00 89 1008.7
20260510035031 54 228 1.0 4.0 0.00 0.00 0.00 88 1008.6
20260510034541 55 33 0.0 0.0 0.00 0.00 0.00 88 1008.6
20260510034009 55 33 0.0 2.0 0.00 0.00 0.00 87 1008.6
20260510033542 55 33 0.0 3.0 0.00 0.00 0.00 87 1008.6
20260510033013 55 33 0.0 2.0 0.00 0.00 0.00 87 1008.7
20260510032548 55 33 0.0 2.0 0.00 0.00 0.00 87 1008.6
20260510032100 55 33 0.0 4.0 0.00 0.00 0.00 87 1008.4
20260510032002 55 33 0.0 4.0 0.00 0.00 0.00 87 1008.4
20260510031537 56 31 3.0 4.0 0.00 0.00 0.00 86 1008.5
20260510031009 56 67 0.0 0.0 0.00 0.00 0.00 86 1008.2
20260510030542 56 67 0.0 1.0 0.00 0.00 0.00 86 1008.3
20260510030012 56 67 0.0 2.0 0.00 0.00 0.00 85 1008.2
20260510025532 56 67 0.0 3.0 0.00 0.00 0.00 85 1008.2
20260510025006 56 67 1.0 3.0 0.00 0.00 0.00 85 1008.2
20260510024542 57 51 2.0 3.0 0.00 0.00 0.00 83 1008.2
20260510024008 57 20 0.0 2.0 0.00 0.00 0.00 84 1008.1
20260510023542 57 20 0.0 2.0 0.00 0.00 0.00 83 1008.1
20260510023059 58 20 1.0 2.0 0.00 0.00 0.00 82 1008.1
20260510022537 58 267 0.0 1.0 0.00 0.00 0.00 81 1008.0
20260510022008 58 267 0.0 2.0 0.00 0.00 0.00 80 1008.0
20260510021543 58 267 1.0 2.0 0.00 0.00 0.00 80 1007.9
20260510021100 59 143 0.0 2.0 0.00 0.00 0.00 80 1007.9
20260510020528 59 143 0.0 1.0 0.00 0.00 0.00 79 1007.8
20260510020007 59 225 0.0 6.0 0.00 0.00 0.00 78 1007.7
20260510015536 60 225 0.0 6.0 0.00 0.00 0.00 77 1007.7
20260510015009 60 223 1.0 6.0 0.00 0.00 0.00 77 1007.8
20260510014542 60 223 0.0 0.0 0.00 0.00 0.00 76 1007.7
20260510014016 60 223 0.0 0.0 0.00 0.00 0.00 76 1007.6
20260510013550 61 223 0.0 0.0 0.00 0.00 0.00 75 1007.6
20260510013022 61 223 0.0 0.0 0.00 0.00 0.00 75 1007.5
20260510012553 61 223 0.0 0.0 0.00 0.00 0.00 74 1007.4
20260510012022 62 223 0.0 0.0 0.00 0.00 0.00 73 1007.2
20260510011559 62 223 0.0 0.0 0.00 0.00 0.00 71 1007.2
20260510011027 63 223 0.0 1.0 0.00 0.00 0.00 70 1007.0
20260510010507 64 223 0.0 2.0 0.00 0.00 0.00 68 1006.9
20260510010036 64 223 1.0 2.0 0.00 0.00 0.00 68 1006.9
20260510005508 65 240 0.0 0.0 0.00 0.00 0.00 67 1006.8
20260510005043 65 240 0.0 0.0 0.00 0.00 0.00 67 1006.7
20260510004559 65 240 0.0 0.0 0.00 0.00 0.00 66 1006.7
20260510004031 66 240 0.0 1.0 0.00 0.00 0.00 65 1006.6
20260510003506 66 240 0.0 3.0 0.00 0.00 0.00 64 1006.5
20260510003052 67 240 1.0 3.0 0.00 0.00 0.00 64 1006.5
20260510002511 67 147 0.0 0.0 0.00 0.00 0.00 62 1006.5
20260510002043 68 111 0.0 0.0 0.00 0.00 0.00 62 1006.5
20260510001510 68 111 0.0 0.0 0.00 0.00 0.00 61 1006.5
20260510001034 69 111 0.0 0.0 0.00 0.00 0.00 60 1006.5
20260510000508 70 111 0.0 0.0 0.00 0.00 0.00 59 1006.6
20260510000049 70 111 0.0 0.0 0.00 0.00 0.00 58 1006.6
20260509235513 71 111 0.0 0.0 0.00 0.00 0.00 57 1006.5
20260509235048 71 111 0.0 0.0 0.00 0.00 0.00 57 1006.4
20260509234509 71 111 0.0 1.0 0.00 0.00 0.00 56 1006.4
20260509234040 72 111 0.0 3.0 0.00 0.00 0.00 56 1006.4
20260509233513 72 111 1.0 3.0 0.00 0.00 0.00 54 1006.5
20260509233048 73 58 1.0 2.0 0.00 0.00 0.00 55 1006.4
20260509232518 73 34 0.0 0.0 0.00 0.00 0.00 52 1006.2
20260509232052 73 34 0.0 0.0 0.00 0.00 0.00 50 1006.2
20260509231526 73 34 0.0 1.0 0.00 0.00 0.00 49 1006.3
20260509231059 73 34 0.0 3.0 0.00 0.00 0.00 49 1006.2
20260509231002 73 34 0.0 3.0 0.00 0.00 0.00 50 1006.1
20260509230534 73 34 1.0 4.0 0.00 0.00 0.00 50 1006.2
20260509230004 74 357 2.0 4.0 0.00 0.00 0.00 48 1006.1
20260509225534 74 293 0.0 5.0 0.00 0.00 0.00 50 1006.0
20260509225012 74 337 3.0 5.0 0.00 0.00 0.00 51 1006.1
20260509224541 73 321 0.0 4.0 0.00 0.00 0.00 50 1006.1
20260509224013 73 32 2.0 5.0 0.00 0.00 0.00 52 1006.2
20260509223548 73 292 1.0 5.0 0.00 0.00 0.00 51 1006.4
20260509223018 74 304 0.0 2.0 0.00 0.00 0.00 52 1006.3
20260509222531 74 312 0.0 2.0 0.00 0.00 0.00 51 1006.2
20260509222003 73 273 0.0 4.0 0.00 0.00 0.00 54 1006.1
20260509221537 73 277 1.0 4.0 0.00 0.00 0.00 53 1006.2
20260509221008 73 84 1.0 5.0 0.00 0.00 0.00 56 1006.3
20260509220540 73 48 2.0 5.0 0.00 0.00 0.00 53 1006.4
20260509220009 73 61 1.0 6.0 0.00 0.00 0.00 53 1006.4
20260509215539 72 344 0.0 4.0 0.00 0.00 0.00 54 1006.3
20260509215011 72 12 1.0 4.0 0.00 0.00 0.00 57 1006.3
20260509214543 72 29 3.0 4.0 0.00 0.00 0.00 54 1006.2
20260509214015 71 232 1.0 3.0 0.00 0.00 0.00 56 1006.2
20260509213549 71 355 0.0 4.0 0.00 0.00 0.00 57 1006.2
20260509213005 71 338 2.0 4.0 0.00 0.00 0.00 55 1006.2
20260509212537 71 70 2.0 3.0 0.00 0.00 0.00 54 1006.2
20260509212009 71 344 1.0 3.0 0.00 0.00 0.00 56 1006.2
20260509211545 71 311 1.0 5.0 0.00 0.00 0.00 55 1006.2
20260509211059 71 9 2.0 8.0 0.00 0.00 0.00 53 1006.2
20260509211003 71 350 3.0 8.0 0.00 0.00 0.00 53 1006.2
20260509210519 72 50 1.0 4.0 0.00 0.00 0.00 53 1006.2
20260509210056 72 65 1.0 4.0 0.00 0.00 0.00 54 1006.1
20260509205534 72 273 2.0 9.0 0.00 0.00 0.00 53 1006.1
20260509205101 72 22 3.0 9.0 0.00 0.00 0.00 54 1006.1
20260509204526 72 331 3.0 7.0 0.00 0.00 0.00 55 1006.1
20260509204049 72 160 1.0 7.0 0.00 0.00 0.00 58 1006.0
20260509203519 71 103 3.0 7.0 0.00 0.00 0.00 56 1006.1
20260509203053 72 63 1.0 4.0 0.00 0.00 0.00 59 1006.0
20260509202531 72 198 2.0 5.0 0.00 0.00 0.00 55 1006.1
20260509202047 71 358 1.0 3.0 0.00 0.00 0.00 57 1006.1
20260509201520 72 331 1.0 4.0 0.00 0.00 0.00 56 1006.1
20260509201051 71 32 0.0 11.0 0.00 0.00 0.00 54 1006.2
20260509200529 71 332 5.0 11.0 0.00 0.00 0.00 53 1006.3
20260509200046 72 286 2.0 7.0 0.00 0.00 0.00 59 1006.4
20260509195516 71 18 2.0 9.0 0.00 0.00 0.00 54 1006.2
20260509195053 71 300 5.0 10.0 0.00 0.00 0.00 55 1006.3
20260509194519 71 250 7.0 11.0 0.00 0.00 0.00 53 1006.4
20260509194056 71 312 3.0 12.0 0.00 0.00 0.00 55 1006.4
20260509193511 71 263 5.0 13.0 0.00 0.00 0.00 55 1006.4
20260509193044 71 326 5.0 13.0 0.00 0.00 0.00 55 1006.5
20260509192512 71 326 3.0 15.0 0.00 0.00 0.00 54 1006.4
20260509192045 71 231 6.0 12.0 0.00 0.00 0.00 53 1006.4
20260509191517 71 188 6.0 12.0 0.00 0.00 0.00 55 1006.5
20260509191033 71 283 4.0 12.0 0.00 0.00 0.00 55 1006.6
20260509190504 70 261 6.0 12.0 0.00 0.00 0.00 58 1006.7
20260509190036 70 287 4.0 10.0 0.00 0.00 0.00 57 1006.8
20260509185505 70 302 3.0 11.0 0.00 0.00 0.00 58 1006.9
20260509185037 69 194 5.0 11.0 0.00 0.00 0.00 59 1007.0
20260509184506 68 241 1.0 11.0 0.00 0.00 0.00 59 1007.0
20260509184039 68 356 3.0 11.0 0.00 0.00 0.00 58 1007.2
20260509183505 68 197 1.0 6.0 0.00 0.00 0.00 58 1007.2
20260509183038 68 152 3.0 9.0 0.00 0.00 0.00 58 1007.2
20260509182509 68 77 4.0 9.0 0.00 0.00 0.00 58 1006.9
20260509182041 67 174 3.0 8.0 0.00 0.00 0.00 59 1007.1
20260509181515 67 223 2.0 8.0 0.00 0.00 0.00 59 1007.3
20260509181047 67 133 1.0 5.0 0.00 0.00 0.00 59 1007.5
20260509180515 67 199 2.0 9.0 0.00 0.00 0.00 58 1007.6
20260509180049 67 169 5.0 9.0 0.00 0.00 0.00 56 1007.7
20260509175527 67 133 3.0 6.0 0.00 0.00 0.00 56 1008.0
20260509175047 67 115 2.0 7.0 0.00 0.00 0.00 57 1008.0
20260509174507 66 271 2.0 6.0 0.00 0.00 0.00 57 1008.0
20260509174039 66 224 2.0 5.0 0.00 0.00 0.00 59 1008.0
20260509173508 66 171 2.0 4.0 0.00 0.00 0.00 56 1008.2
20260509173044 66 150 1.0 4.0 0.00 0.00 0.00 59 1008.4
20260509172509 66 128 1.0 6.0 0.00 0.00 0.00 55 1008.5
20260509172041 66 122 3.0 6.0 0.00 0.00 0.00 55 1008.6
20260509171514 67 209 1.0 5.0 0.00 0.00 0.00 56 1008.5
20260509171042 67 178 2.0 5.0 0.00 0.00 0.00 58 1008.5
20260509170513 67 194 2.0 5.0 0.00 0.00 0.00 55 1008.6
20260509170027 67 152 1.0 6.0 0.00 0.00 0.00 59 1008.7
20260509165558 67 310 2.0 8.0 0.00 0.00 0.00 54 1008.7
20260509165501 67 313 3.0 8.0 0.00 0.00 0.00 54 1008.7
20260509165033 67 306 4.0 8.0 0.00 0.00 0.00 55 1008.7
20260509164505 67 242 5.0 7.0 0.00 0.00 0.00 52 1008.8
20260509164036 67 148 1.0 9.0 0.00 0.00 0.00 60 1008.8
20260509163553 66 208 4.0 9.0 0.00 0.00 0.00 56 1008.7
20260509163024 66 150 3.0 7.0 0.00 0.00 0.00 54 1008.7
20260509162559 65 187 2.0 11.0 0.00 0.00 0.00 60 1008.6
20260509162501 65 322 2.0 11.0 0.00 0.00 0.00 60 1008.6
20260509162039 65 210 6.0 11.0 0.00 0.00 0.00 57 1008.6
20260509161507 65 92 3.0 10.0 0.00 0.00 0.00 58 1008.6
20260509161041 65 152 3.0 8.0 0.00 0.00 0.00 56 1008.5
20260509160552 65 171 3.0 6.0 0.00 0.00 0.00 60 1008.5
20260509160023 65 15 2.0 7.0 0.00 0.00 0.00 56 1008.6
20260509155552 64 181 3.0 7.0 0.00 0.00 0.00 59 1008.6
20260509155020 65 192 2.0 8.0 0.00 0.00 0.00 57 1008.7
20260509154602 64 197 3.0 8.0 0.00 0.00 0.00 55 1008.7
20260509154008 64 188 1.0 6.0 0.00 0.00 0.00 60 1008.7
20260509153540 64 227 3.0 6.0 0.00 0.00 0.00 61 1008.9
20260509153011 63 184 1.0 5.0 0.00 0.00 0.00 60 1009.0
20260509152540 63 207 1.0 5.0 0.00 0.00 0.00 57 1009.0
20260509152011 63 199 2.0 7.0 0.00 0.00 0.00 58 1009.0
20260509151527 63 229 3.0 7.0 0.00 0.00 0.00 59 1009.1
20260509151058 62 321 2.0 5.0 0.00 0.00 0.00 60 1008.9
20260509150536 62 340 0.0 5.0 0.00 0.00 0.00 59 1009.1
20260509150016 62 288 2.0 6.0 0.00 0.00 0.00 58 1009.1
20260509145527 62 267 1.0 4.0 0.00 0.00 0.00 62 1009.1
20260509145101 61 265 1.0 5.0 0.00 0.00 0.00 63 1009.1
20260509145003 61 229 0.0 4.0 0.00 0.00 0.00 63 1009.1
20260509144551 61 348 1.0 4.0 0.00 0.00 0.00 61 1009.1
20260509144008 61 165 0.0 6.0 0.00 0.00 0.00 62 1009.2
20260509143537 60 357 3.0 6.0 0.00 0.00 0.00 64 1009.3
20260509143018 60 360 1.0 6.0 0.00 0.00 0.00 62 1009.4
20260509142546 60 299 1.0 6.0 0.00 0.00 0.00 63 1009.4
20260509142017 60 275 2.0 6.0 0.00 0.00 0.00 63 1009.4
20260509141550 60 38 0.0 5.0 0.00 0.00 0.00 64 1009.5
20260509141028 59 283 2.0 6.0 0.00 0.00 0.00 63 1009.4
20260509140554 59 318 0.0 3.0 0.00 0.00 0.00 63 1009.5
20260509140024 59 271 0.0 6.0 0.00 0.00 0.00 62 1009.4
20260509135554 59 244 2.0 6.0 0.00 0.00 0.00 64 1009.4
20260509135031 59 327 0.0 3.0 0.00 0.00 0.00 67 1009.4
20260509134600 58 246 0.0 5.0 0.00 0.00 0.00 66 1009.3
20260509134502 58 271 0.0 5.0 0.00 0.00 0.00 65 1009.3
20260509134032 58 288 2.0 5.0 0.00 0.00 0.00 65 1009.3
20260509133504 58 269 1.0 4.0 0.00 0.00 0.00 66 1009.3
20260509133037 58 261 0.0 3.0 0.00 0.00 0.00 65 1009.3
20260509132506 58 181 0.0 3.0 0.00 0.00 0.00 66 1009.3
20260509132040 57 196 0.0 5.0 0.00 0.00 0.00 68 1009.3
20260509131527 57 302 2.0 7.0 0.00 0.00 0.00 66 1009.4
20260509131049 57 244 3.0 7.0 0.00 0.00 0.00 65 1009.4
20260509130518 57 259 1.0 4.0 0.00 0.00 0.00 65 1009.4
20260509130101 57 274 1.0 4.0 0.00 0.00 0.00 66 1009.5
20260509125523 57 237 0.0 3.0 0.00 0.00 0.00 69 1009.4
20260509125042 57 291 0.0 3.0 0.00 0.00 0.00 71 1009.5
20260509124520 56 269 0.0 2.0 0.00 0.00 0.00 70 1009.3
20260509124046 56 320 0.0 3.0 0.00 0.00 0.00 68 1009.4
20260509123516 56 321 1.0 2.0 0.00 0.00 0.00 67 1009.5
20260509123050 56 277 0.0 3.0 0.00 0.00 0.00 68 1009.5
20260509122503 56 277 1.0 3.0 0.00 0.00 0.00 68 1009.4
20260509122040 55 277 1.0 3.0 0.00 0.00 0.00 68 1009.3
20260509121514 55 260 0.0 2.0 0.00 0.00 0.00 70 1009.4
20260509121048 55 240 0.0 2.0 0.00 0.00 0.00 71 1009.4
20260509120514 55 217 0.0 1.0 0.00 0.00 0.00 71 1009.3
20260509120048 55 234 0.0 2.0 0.00 0.00 0.00 68 1009.4
20260509115505 55 234 0.0 2.0 0.00 0.00 0.00 70 1009.4
20260509115039 55 234 1.0 2.0 0.00 0.00 0.00 69 1009.4
20260509114510 55 103 0.0 4.0 0.00 0.00 0.00 66 1009.3
20260509114041 55 103 2.0 4.0 0.00 0.00 0.00 67 1009.3
20260509113510 55 328 0.0 4.0 0.00 0.00 0.00 66 1009.3
20260509113050 55 283 1.0 4.0 0.00 0.00 0.00 66 1009.0
20260509112521 55 323 0.0 4.0 0.00 0.00 0.00 66 1008.9
20260509112051 55 306 0.0 4.0 0.00 0.00 0.00 66 1008.9
20260509111519 55 292 1.0 3.0 0.00 0.00 0.00 66 1008.8
20260509111054 55 293 0.0 3.0 0.00 0.00 0.00 66 1008.8
20260509110528 55 315 0.0 3.0 0.00 0.00 0.00 66 1008.8
20260509110059 55 18 0.0 4.0 0.00 0.00 0.00 67 1008.8
20260509105529 55 9 1.0 4.0 0.00 0.00 0.00 65 1008.7
20260509105045 54 38 1.0 4.0 0.00 0.00 0.00 67 1008.8
20260509104517 55 33 1.0 3.0 0.00 0.00 0.00 67 1008.9
20260509104051 55 50 1.0 3.0 0.00 0.00 0.00 67 1008.8
20260509103521 54 48 1.0 4.0 0.00 0.00 0.00 65 1008.8
20260509103053 54 30 1.0 3.0 0.00 0.00 0.00 65 1008.8
20260509102533 54 44 1.0 4.0 0.00 0.00 0.00 67 1008.9
20260509102047 55 73 0.0 4.0 0.00 0.00 0.00 66 1008.9
20260509101524 55 47 1.0 4.0 0.00 0.00 0.00 64 1008.9
20260509101055 55 48 1.0 4.0 0.00 0.00 0.00 64 1008.8
20260509100527 55 11 1.0 3.0 0.00 0.00 0.00 63 1008.7
20260509100057 55 40 1.0 3.0 0.00 0.00 0.00 63 1008.9
20260509095515 56 327 0.0 3.0 0.00 0.00 0.00 61 1008.9
20260509095051 56 48 0.0 3.0 0.00 0.00 0.00 62 1008.9
20260509094520 56 359 0.0 4.0 0.00 0.00 0.00 61 1008.8
20260509094051 56 342 1.0 4.0 0.00 0.00 0.00 60 1008.8
20260509093505 56 304 1.0 5.0 0.00 0.00 0.00 60 1008.8
20260509093022 56 300 1.0 3.0 0.00 0.00 0.00 60 1008.9
20260509092557 56 217 1.0 5.0 0.00 0.00 0.00 60 1008.9
20260509092031 56 321 1.0 6.0 0.00 0.00 0.00 61 1008.9
20260509091505 56 290 3.0 6.0 0.00 0.00 0.00 61 1008.9
20260509091035 56 304 1.0 4.0 0.00 0.00 0.00 61 1008.9
20260509090509 56 321 0.0 5.0 0.00 0.00 0.00 60 1008.8
20260509090053 57 301 1.0 5.0 0.00 0.00 0.00 58 1008.8
20260509085509 57 59 1.0 5.0 0.00 0.00 0.00 59 1008.9
20260509085044 57 317 1.0 7.0 0.00 0.00 0.00 60 1009.0
20260509084515 57 308 1.0 6.0 0.00 0.00 0.00 58 1009.1
20260509084026 57 283 1.0 6.0 0.00 0.00 0.00 58 1009.2
20260509083559 57 246 1.0 4.0 0.00 0.00 0.00 58 1009.1
20260509083503 57 35 1.0 4.0 0.00 0.00 0.00 58 1009.1
20260509083044 57 292 1.0 4.0 0.00 0.00 0.00 57 1009.0
20260509082503 57 298 1.0 9.0 0.00 0.00 0.00 58 1009.1
20260509082033 57 273 2.0 9.0 0.00 0.00 0.00 58 1009.1
20260509081505 57 298 3.0 10.0 0.00 0.00 0.00 57 1009.1
20260509081039 57 300 5.0 12.0 0.00 0.00 0.00 58 1009.0
20260509080510 57 351 3.0 7.0 0.00 0.00 0.00 58 1009.2
20260509080047 57 290 3.0 9.0 0.00 0.00 0.00 58 1009.2
20260509075559 57 272 4.0 9.0 0.00 0.00 0.00 58 1009.2
20260509075501 57 256 4.0 8.0 0.00 0.00 0.00 58 1009.1
20260509075029 57 259 2.0 9.0 0.00 0.00 0.00 60 1009.2
20260509074503 56 269 5.0 9.0 0.00 0.00 0.00 59 1009.1
20260509074035 56 329 4.0 8.0 0.00 0.00 0.00 60 1009.2
20260509073503 56 321 2.0 7.0 0.00 0.00 0.00 62 1009.2
20260509073019 56 278 0.0 6.0 0.00 0.00 0.00 63 1009.2
20260509072555 56 327 0.0 6.0 0.00 0.00 0.00 62 1009.2
20260509072026 55 322 1.0 4.0 0.00 0.00 0.00 62 1009.1
20260509071559 55 288 2.0 4.0 0.00 0.00 0.00 63 1009.3
20260509071500 55 309 1.0 5.0 0.00 0.00 0.00 63 1009.2
20260509071037 55 303 0.0 3.0 0.00 0.00 0.00 64 1009.2
20260509070551 55 350 0.0 2.0 0.00 0.00 0.00 63 1009.3
20260509070025 55 259 0.0 4.0 0.00 0.00 0.00 64 1009.2